Change the Weather History Date:

Thursday, September 6, 2012

  Actual Average (KJFX) Record (KJFX)
Temperature  
Mean Temperature 79 °F -  
Max Temperature 90 °F 87 °F 100 °F (1960)
Min Temperature 68 °F 62 °F 47 °F (1984)
Cooling Degree Days 14    
Growing Degree Days 29 (Base 50)    
Moisture  
Dew Point 70 °F    
Average Humidity 84    
Maximum Humidity 100    
Minimum Humidity 48    
Precipitation  
Precipitation 0.01 in - - ()
Sea Level Pressure  
Sea Level Pressure 30.03 in    
Wind  
Wind Speed 0 mph (WNW)    
Max Wind Speed 8 mph    
Max Gust Speed -    
Visibility 9 miles    
Events      
Averages and records for this station are not official NWS values.
T = Trace of Precipitation, MM = Missing Value Source: NWS Daily Summary

Daily Weather History Graph

Daily Weather History Graph

Search for Another Location

Airport or City:

Trip Planner

Search our weather history database for the weather conditions in past years. The results will help you decide how hot, cold, wet, or windy it might be!

Date:

Astronomy

Sep. 06, 2012 Rise Set
Actual Time 6:27 AM CDT 7:08 PM CDT
Civil Twilight 6:02 AM CDT 7:34 PM CDT
Nautical Twilight 5:32 AM CDT 8:04 PM CDT
Astronomical Twilight 5:01 AM CDT 8:34 PM CDT
Moon 10:37 PM CDT (9/6) 12:08 PM CDT (9/6)
Length of Visible Light 13h 32m
Length of Day
12h 41m
Waning Gibbous, 67% of the Moon is Illuminated
Sep 6
Waning Gibbous
Sep 8
Last Quarter
Sep 15
New
Sep 22
First Quarter
Sep 29
Full

Hourly Weather History & Observations

Time (CDT) Temp. Heat Index Dew Point Humidity Pressure Visibility Wind Dir Wind Speed Gust Speed Precip Events Conditions
12:56 AM 68.0 °F - 68.0 °F 100% 29.99 in 10.0 mi Calm Calm - 0.01 in   Unknown
1:56 AM 68.0 °F - 68.0 °F 100% 29.98 in 9.0 mi Calm Calm - N/A   Unknown
2:56 AM 68.9 °F - 68.9 °F 100% 29.98 in 10.0 mi Calm Calm - N/A   Unknown
3:56 AM 68.9 °F - 68.9 °F 100% 29.99 in 10.0 mi Calm Calm - N/A   Unknown
4:56 AM 68.9 °F - 68.9 °F 100% 29.99 in 10.0 mi Calm Calm - N/A   Unknown
5:56 AM 68.9 °F - 68.9 °F 100% 30.02 in 10.0 mi Calm Calm - N/A   Unknown
6:56 AM 68.9 °F - 68.9 °F 100% 30.05 in 10.0 mi WSW 4.6 mph - 0.00 in   Unknown
7:56 AM 70.0 °F - 68.9 °F 96% 30.06 in 10.0 mi Calm Calm - 0.00 in   Unknown
8:56 AM 72.0 °F - 70.0 °F 93% 30.06 in 10.0 mi Calm Calm - N/A   Unknown
9:56 AM 77.9 °F - 70.9 °F 79% 30.08 in 10.0 mi Calm Calm - N/A   Mostly Cloudy
10:56 AM 81.9 °F 86.0 °F 70.9 °F 69% 30.08 in 10.0 mi Calm Calm - N/A   Unknown
12:56 PM 86.0 °F 92.2 °F 72.0 °F 63% 30.06 in 10.0 mi Calm Calm - N/A   Clear
1:56 PM 88.0 °F 93.8 °F 70.9 °F 57% 30.05 in 10.0 mi NNW 8.1 mph - N/A   Partly Cloudy
2:56 PM 90.9 °F 95.3 °F 68.9 °F 48% 30.03 in 10.0 mi Calm Calm - N/A   Clear
3:56 PM 90.9 °F 97.3 °F 70.9 °F 52% 30.02 in 10.0 mi Calm Calm - N/A   Clear
4:56 PM 88.9 °F 93.8 °F 70.0 °F 53% 30.00 in 10.0 mi Calm Calm - N/A   Clear
5:56 PM 88.0 °F 93.8 °F 70.9 °F 57% 30.00 in 10.0 mi Calm Calm - N/A   Clear
6:56 PM 81.0 °F 86.7 °F 74.8 °F 82% 30.01 in 10.0 mi Calm Calm - N/A   Clear
7:56 PM 74.8 °F - 73.9 °F 97% 30.02 in 10.0 mi Calm Calm - N/A   Clear
8:56 PM 72.9 °F - 72.9 °F 100% 30.03 in 8.0 mi Calm Calm - N/A   Clear
9:56 PM 70.9 °F - 70.9 °F 100% 30.03 in 5.0 mi Calm Calm - N/A   Clear
11:56 PM 70.9 °F - 70.9 °F 100% 30.05 in 5.0 mi Calm Calm - N/A   Clear